Regional Weather Roundup
Issued by NWS Goodland, KS

Home | Current Version | Previous Version | Text Only | Print | Product List | Glossary Off
Versions: 1 2 3 4 5 6 7 8 9 10 11 12 13 14 15 16 17 18 19 20 21 22 23 24 25 26 27 28 29 30 31 32 33 34 35 36 37 38 39 40 41 42 43 44 45 46 47 48 49 50

000
ASUS43 KGLD 190108
RWRGLD

GOODLAND FORECAST AREA HOURLY WEATHER ROUNDUP
NATIONAL WEATHER SERVICE GOODLAND KS
600 PM MST THU JAN 18 2018

...OFFICIAL OBSERVATIONS...

CITY           SKY/WX    TMP DP  RH WIND       PRES   REMARKS
GOODLAND KS    CLOUDY    49  11  21 SW9       29.95S
HILL CITY KS   CLOUDY    47  17  30 SW8       29.95S
IMPERIAL NEB   CLOUDY    38  26  62 S5        29.91F
MCCOOK NEB     CLOUDY    43  25  49 CALM      29.92F
AKRON CO       CLOUDY    47  20  34 SW8       29.95F
BURLINGTON CO  CLOUDY    39  13  34 SW10      29.98S
LIMON CO       CLOUDY    35   9  33 NW3       30.01S
$$

...UNOFFICIAL OBSERVATIONS...

CITY           SKY/WX    TMP DP  RH WIND       PRES   REMARKS
COLBY KS       CLOUDY    41  19  42 SW7       29.96S
LENORA KS        N/A     49  32  52 S7          N/A
NORTON KS      CLEAR     37  19  48 NW3       29.92
SHARON SPRINGS   N/A     43  12  28 SW10        N/A
TRENTON NEB      N/A     43  32  65 CALM        N/A
KIT CARSON CO    N/A     42  13  30 CALM        N/A
YUMA CO        FAIR      43  14  31 S6        29.93F
$$



USA.gov is the U.S. government's official web portal to all federal, state and local government web resources and services.